Location: Bothwell
(42.3833°S, 147.0000°E)
Time: 09:19:33
(UTC+11:00)

QB50P2 - Pass Details

Date: 02 December 2023
Orbit: 570 x 585 km, 98.0° (Epoch: 27 February)

Event Time Altitude Azimuth Distance (km) Brightness Sun altitude
Exits shadow 03:05:02 41° 289° (WNW) 871 ? -19.7°
Maximum altitude 03:05:17 42° 279° (W) 865 ? -19.7°
Drops below altitude 10° 03:09:20 10° 207° (SSW) 1,960 ? -19.3°
Sets 03:11:37 0° 199° (SSW) 2,873 ? -19.1°
